Flag for Germany Weather past 2 weeks in Wertheim, Baden-Württemberg, Germany

Now
44 °F

Overcast.


Feels Like: 43 °F
Forecast: 31 / 49 °F
Wind: 3 mph from Northwest

Location: Wuerzburg

Current Time: Mar 6, 2015 at 4:11:18 PM

Latest Report: Mar 6, 2015 at 3:00 PM


Visibility: 19 mi

Pressure: 30.62 "Hg

Humidity: 60%

Dew point: 31 °F

Location of WertheimLocation

Historic Weather in Wertheim — Graph

°F

Wertheim temperature yesterday

Maximum temperature yesterday: 45 °F (at 2:00 PM)
Minimum temperature yesterday: 35 °F (at 7:00 AM)
Average temperature yesterday: 39 °F

Past Weeks' High & Low Weather Summary

 TemperatureHumidityPressure
High53 °F (Feb 20, 4:00 PM)100% (Feb 23, 12:00 PM)30.68 "Hg (Feb 23, 12:00 PM)
Low26 °F (Feb 20, 8:00 AM)44% (Feb 26, 4:00 PM)29.50 "Hg (Feb 21, 8:00 AM)
Average38 °F80%30.01 "Hg
* Reported Feb 19 3:00 PM — Mar 6 3:00 PM, Wertheim, Weather by CustomWeather, © 2015

Note: Actual official high and low records may vary slightly from our data, if they occured in-between our weather recording intervals... More about our weather records

Advertising

Wertheim weather history for previous 24 hours

 ConditionsComfort  
Time TempWeatherWind HumidityBarometerVisibility
3:00 PM
Fri, Mar 6
44 °FOvercast.3 mph60%30.62 "Hg19 mi
2:00 PM44 °FOvercast.3 mph57%30.64 "Hg22 mi
1:00 PM44 °FOvercast.5 mph66%30.64 "Hg19 mi
12:00 PM44 °FOvercast.1 mph69%30.66 "Hg14 mi
11:00 AM40 °FOvercast.2 mph77%30.66 "Hg22 mi
10:00 AM37 °FPassing clouds.2 mph83%30.67 "Hg25 mi
9:00 AM33 °FPartly sunny.1 mph91%30.68 "Hg12 mi
8:00 AM31 °FPartly sunny.1 mph95%30.68 "Hg11 mi
7:00 AM31 °FPartly sunny.1 mph94%30.68 "Hg14 mi
6:00 AM32 °FPassing clouds.1 mph90%30.67 "Hg16 mi
5:00 AM32 °FPassing clouds.1 mph92%30.66 "Hg16 mi
4:00 AM32 °FPassing clouds.1 mph92%30.65 "Hg16 mi
3:00 AM33 °FPassing clouds.1 mph87%30.65 "Hg19 mi
2:00 AM34 °FPassing clouds.2 mph83%30.66 "Hg0 mi
1:00 AM37 °FPassing clouds.2 mph75%30.65 "Hg22 mi
12:00 AM38 °FPassing clouds.2 mph73%30.65 "Hg28 mi
10:00 PM
Thu, Mar 5
39 °FOvercast.1 mph68%30.64 "Hg28 mi
9:00 PM40 °FOvercast.2 mph64%30.63 "Hg28 mi
8:00 PM41 °FOvercast.1 mph61%30.63 "Hg28 mi
7:00 PM42 °FOvercast.1 mph59%30.63 "Hg31 mi
6:00 PM42 °FOvercast.2 mph56%30.60 "Hg34 mi
5:00 PM43 °FOvercast.2 mph53%30.59 "Hg34 mi
4:00 PM44 °FOvercast.3 mph52%30.58 "Hg31 mi
Weather by CustomWeather, © 2015

See weather overviewHow to use our weather pages